Weather History for Fort Collins, CO

Change the Weather History Date:

Saturday, December 8, 2012

  Actual Average Record
Temperature  
Mean Temperature 32 °F -  
Max Temperature 46 °F 41 °F 57 °F (1996)
Min Temperature 19 °F 18 °F -9 °F (2005)
Degree Days  
Heating Degree Days 32    
Moisture  
Dew Point 17 °F    
Average Humidity 61    
Maximum Humidity 93    
Minimum Humidity 31    
Precipitation  
Precipitation 0.00 in - - ()
Sea Level Pressure  
Sea Level Pressure 29.78 in    
Wind  
Wind Speed 10 mph (North)    
Max Wind Speed 34 mph    
Max Gust Speed 46 mph    
Visibility 10 miles    
Events      
Averages and records for this station are not official NWS values.
T = Trace of Precipitation, MM = Missing Value Source: NWS Daily Summary

Daily Weather History Graph

Daily Weather History Graph

Search for Another Location

Airport:

Trip Planner

Search our weather history database for the weather conditions in past years. The results will help you decide how hot, cold, wet, or windy it might be!

Date:

Astronomy

Dec. 08, 2012 Rise Set
Actual Time 7:11 AM MST 4:33 PM MST
Civil Twilight 6:40 AM MST 5:03 PM MST
Nautical Twilight 6:06 AM MST 5:38 PM MST
Astronomical Twilight 5:33 AM MST 6:11 PM MST
Moon 1:37 AM MST (12/8) 1:05 PM MST (12/8)
Length of Visible Light 10h 23m
Length of Day
9h 22m
Waning Crescent, 27% of the Moon is Illuminated
Dec 8
Waning Crescent
Dec 13
New
Dec 19
First Quarter
Dec 28
Full
Jan 4
Last Quarter

Hourly Weather History & Observations

Time (MST) Temp. Windchill Dew Point Humidity Pressure Visibility Wind Dir Wind Speed Gust Speed Precip Events Conditions
12:15 AM 32.0 °F 24.2 °F 21.2 °F 64% 29.89 in 10.0 mi SE 9.2 mph - N/A   Clear
12:35 AM 30.2 °F 21.3 °F 21.2 °F 69% 29.87 in 10.0 mi SE 10.4 mph - N/A   Clear
12:55 AM 30.2 °F 20.8 °F 23.0 °F 75% 29.86 in 10.0 mi ESE 11.5 mph - N/A   Partly Cloudy
1:15 AM 30.2 °F 21.9 °F 23.0 °F 75% 29.86 in 10.0 mi East 9.2 mph - N/A   Clear
1:35 AM 28.4 °F 21.2 °F 21.2 °F 74% 29.86 in 10.0 mi East 6.9 mph - N/A   Clear
1:55 AM 26.6 °F 18.2 °F 21.2 °F 80% 29.85 in 10.0 mi East 8.1 mph - N/A   Partly Cloudy
2:15 AM 26.6 °F 20.0 °F 21.2 °F 80% 29.85 in 10.0 mi ENE 5.8 mph - N/A   Scattered Clouds
2:35 AM 28.4 °F 20.4 °F 21.2 °F 74% 29.84 in 10.0 mi East 8.1 mph - N/A   Mostly Cloudy
2:55 AM 28.4 °F 20.4 °F 21.2 °F 74% 29.82 in 10.0 mi ESE 8.1 mph - N/A   Partly Cloudy
3:15 AM 26.6 °F 20.0 °F 21.2 °F 80% 29.82 in 10.0 mi ENE 5.8 mph - N/A   Partly Cloudy
3:35 AM 24.8 °F 16.9 °F 19.4 °F 80% 29.80 in 10.0 mi ENE 6.9 mph - N/A   Partly Cloudy
3:55 AM 21.2 °F 12.6 °F 15.8 °F 80% 29.79 in 10.0 mi West 6.9 mph - N/A   Clear
4:15 AM 21.2 °F 14.9 °F 17.6 °F 86% 29.79 in 10.0 mi NW 4.6 mph - N/A   Clear
4:35 AM 23.0 °F - 19.4 °F 86% 29.78 in 10.0 mi Calm Calm - N/A   Clear
4:55 AM 21.2 °F 16.4 °F 17.6 °F 86% 29.77 in 10.0 mi NE 3.5 mph - N/A   Clear
5:15 AM 24.8 °F 17.9 °F 21.2 °F 86% 29.76 in 10.0 mi NE 5.8 mph - N/A   Clear
5:35 AM 24.8 °F 20.5 °F 21.2 °F 86% 29.76 in 10.0 mi NNE 3.5 mph - N/A   Clear
5:55 AM 24.8 °F 16.9 °F 21.2 °F 86% 29.74 in 10.0 mi NE 6.9 mph - N/A   Clear
6:15 AM 23.0 °F 17.0 °F 19.4 °F 86% 29.75 in 10.0 mi North 4.6 mph - N/A   Clear
6:35 AM 21.2 °F - 17.6 °F 86% 29.75 in 10.0 mi Calm Calm - N/A   Clear
6:55 AM 21.2 °F - 17.6 °F 86% 29.75 in 10.0 mi Calm Calm - N/A   Clear
7:15 AM 21.2 °F 16.4 °F 17.6 °F 86% 29.74 in 10.0 mi NNW 3.5 mph - N/A   Clear
7:35 AM 19.4 °F - 17.6 °F 93% 29.74 in 10.0 mi Calm Calm - N/A   Clear
7:55 AM 23.0 °F - 19.4 °F 86% 29.74 in 10.0 mi Calm Calm - N/A   Clear
8:15 AM 24.8 °F - 21.2 °F 86% 29.74 in 10.0 mi Calm Calm - N/A   Clear
8:35 AM 24.8 °F 19.1 °F 21.2 °F 86% 29.72 in 10.0 mi ENE 4.6 mph - N/A   Clear
8:55 AM 26.6 °F - 24.8 °F 93% 29.72 in 10.0 mi Calm Calm - N/A   Clear
9:15 AM 28.4 °F 24.6 °F 24.8 °F 86% 29.72 in 10.0 mi South 3.5 mph - N/A   Clear
9:35 AM 30.2 °F - 24.8 °F 80% 29.72 in 10.0 mi Calm Calm - N/A   Clear
9:55 AM 32.0 °F 27.5 °F 24.8 °F 75% 29.72 in 10.0 mi SSW 4.6 mph - N/A   Clear
10:15 AM 35.6 °F 29.2 °F 24.8 °F 65% 29.71 in 10.0 mi SSE 8.1 mph - N/A   Clear
10:35 AM 37.4 °F 32.1 °F 26.6 °F 65% 29.71 in 10.0 mi ESE 6.9 mph - N/A   Clear
10:55 AM 39.2 °F 35.0 °F 26.6 °F 61% 29.69 in 10.0 mi East 5.8 mph - N/A   Clear
11:15 AM 42.8 °F 39.3 °F 26.6 °F 53% 29.68 in 10.0 mi East 5.8 mph - N/A   Clear
11:35 AM 44.6 °F 39.7 °F 26.6 °F 49% 29.67 in 10.0 mi ENE 9.2 mph - N/A   Scattered Clouds
11:55 AM 46.4 °F 41.9 °F 26.6 °F 46% 29.67 in 10.0 mi East 9.2 mph - N/A   Mostly Cloudy
12:15 PM 42.8 °F 36.6 °F 24.8 °F 49% 29.66 in 10.0 mi NNE 11.5 mph - N/A   Overcast
12:35 PM 42.8 °F 39.3 °F 24.8 °F 49% 29.65 in 10.0 mi NE 5.8 mph - N/A   Mostly Cloudy
12:55 PM 44.6 °F 42.2 °F 23.0 °F 43% 29.65 in 10.0 mi West 4.6 mph - N/A   Mostly Cloudy
1:35 PM 44.6 °F 38.1 °F 21.2 °F 39% 29.66 in 10.0 mi NW 13.8 mph 19.6 mph N/A   Overcast
1:55 PM 44.6 °F 39.2 °F 21.2 °F 39% 29.65 in 10.0 mi WNW 10.4 mph - N/A   Overcast
2:15 PM 44.6 °F 39.2 °F 21.2 °F 39% 29.64 in 10.0 mi North 10.4 mph - N/A   Mostly Cloudy
2:35 PM 39.2 °F 30.5 °F 23.0 °F 52% 29.65 in 10.0 mi North 16.1 mph 26.5 mph N/A   Mostly Cloudy
2:55 PM 37.4 °F 28.9 °F 23.0 °F 56% 29.67 in 10.0 mi North 13.8 mph - N/A   Overcast
3:15 PM 37.4 °F 28.2 °F 23.0 °F 56% 29.68 in 10.0 mi NNW 16.1 mph - N/A   Mostly Cloudy
3:35 PM 37.4 °F 27.5 °F 21.2 °F 52% 29.70 in 10.0 mi NNW 18.4 mph - N/A   Mostly Cloudy
3:55 PM 37.4 °F 26.6 °F 21.2 °F 52% 29.69 in 10.0 mi NNW 21.9 mph 26.5 mph N/A   Mostly Cloudy
4:15 PM 37.4 °F 27.2 °F 19.4 °F 48% 29.71 in 10.0 mi NNW 19.6 mph 28.8 mph N/A   Mostly Cloudy
4:35 PM 37.4 °F 27.2 °F 17.6 °F 45% 29.71 in 10.0 mi NNW 19.6 mph 25.3 mph N/A   Overcast
4:55 PM 37.4 °F 26.9 °F 17.6 °F 45% 29.72 in 10.0 mi NNW 20.7 mph 28.8 mph N/A   Mostly Cloudy
5:15 PM 33.8 °F 20.3 °F 19.4 °F 56% 29.74 in 10.0 mi NNW 28.8 mph 34.5 mph N/A   Mostly Cloudy
5:35 PM 32.0 °F 18.1 °F 17.6 °F 55% 29.76 in 10.0 mi NNW 27.6 mph 34.5 mph N/A   Overcast
5:55 PM 32.0 °F 17.4 °F 15.8 °F 51% 29.77 in 10.0 mi NNW 31.1 mph 42.6 mph N/A   Overcast
6:15 PM 30.2 °F 14.5 °F 12.2 °F 47% 29.78 in 10.0 mi NNW 33.4 mph 44.9 mph N/A   Mostly Cloudy
6:55 PM 28.4 °F 12.5 °F 12.2 °F 51% 29.79 in 10.0 mi NNW 31.1 mph 42.6 mph N/A   Partly Cloudy
7:15 PM 28.4 °F 12.3 °F 10.4 °F 47% 29.80 in 10.0 mi NW 32.2 mph 43.7 mph N/A   Clear
7:35 PM 28.4 °F 11.8 °F 8.6 °F 43% 29.82 in 10.0 mi NW 34.5 mph 40.3 mph N/A   Clear
7:55 PM 28.4 °F 12.5 °F 8.6 °F 43% 29.84 in 10.0 mi NW 31.1 mph 46.0 mph N/A   Clear
8:15 PM 28.4 °F 13.8 °F 6.8 °F 40% 29.87 in 10.0 mi NNW 25.3 mph 34.5 mph N/A   Clear
8:35 PM 28.4 °F 14.7 °F 3.2 °F 34% 29.89 in 10.0 mi NW 21.9 mph 31.1 mph N/A   Clear
8:55 PM 28.4 °F 16.2 °F 1.4 °F 31% 29.89 in 10.0 mi NNW 17.3 mph 28.8 mph N/A   Clear
9:15 PM 28.4 °F 16.6 °F 1.4 °F 31% 29.89 in 10.0 mi NNW 16.1 mph 21.9 mph N/A   Clear
9:35 PM 28.4 °F 16.6 °F 1.4 °F 31% 29.89 in 10.0 mi NW 16.1 mph 21.9 mph N/A   Clear
9:55 PM 28.4 °F 14.4 °F 1.4 °F 31% 29.92 in 10.0 mi WNW 23.0 mph 27.6 mph N/A   Scattered Clouds
10:15 PM 28.4 °F 15.8 °F 1.4 °F 31% 29.92 in 10.0 mi NW 18.4 mph 25.3 mph N/A   Scattered Clouds
10:35 PM 26.6 °F 14.7 °F 1.4 °F 34% 29.92 in 10.0 mi NW 15.0 mph 21.9 mph N/A   Partly Cloudy
10:55 PM 26.6 °F 17.5 °F 1.4 °F 34% 29.93 in 10.0 mi NNW 9.2 mph 16.1 mph N/A   Clear
11:15 PM 26.6 °F 16.2 °F 1.4 °F 34% 29.92 in 10.0 mi NNW 11.5 mph - N/A   Clear
11:35 PM 26.6 °F 18.2 °F 1.4 °F 34% 29.93 in 10.0 mi NNW 8.1 mph - N/A   Partly Cloudy
11:55 PM 26.6 °F 14.7 °F 1.4 °F 34% 29.93 in 10.0 mi NNW 15.0 mph 19.6 mph N/A   Scattered Clouds